Location: Boiro
(42.6475°N, 8.8834°W)
Time: 17:14:40
(UTC+01:00)

Tiros 1 despin weight - Pass Details

Date: 04 December 2021
Orbit: 592 x 641 km, 48.2° (Epoch: 20 January)

Event Time Altitude Azimuth Distance (km) Brightness Sun altitude
Rises 14:37:11 0° 235° (SW) 2,835 ? 23.0°
Reaches altitude 10° 14:39:29 10° 233° (SW) 1,929 ? 22.9°
Maximum altitude 14:43:53 71° 151° (SSE) 628 ? 22.6°
Drops below altitude 10° 14:48:16 10° 67° (ENE) 1,923 ? 22.3°
Sets 14:50:33 0° 65° (ENE) 2,825 ? 22.2°
